[[{"header":{"parameterUnit":"m.s-1","parameterCategory":1,"la1":30.2991,"la2":30.254,"lo1":-89.0895,"lo2":-89.0444,"dy":0.0017,"dx":0.0017,"nx":28,"ny":28,"refTime":"2025-03-06T09:00:00:Z","depth":0,"parameterNumber":2,"parameterNumberName":"U-component_of_WINDS"},"data":[0,0,0,0,0,0,0,0,0,0,0,0,0,0,0,0,0,0,0,0,0,0,0,0,0,0,0,0,0,0,0,0,0,0,0,0,0,0,0,0,0,0,0,0,0,0,0,0,0,0,0,0,0,0,0,0,0,0,1.4756,1.4757,0,1.4882,1.4883,1.4884,1.4875,1.4873,1.4871,1.4869,1.5002,1.5007,1.5012,0,0,0,0,0,0,0,0,0,0,0,0,0,1.4511,1.4515,1.4756,1.4757,1.4759,1.4881,1.4883,1.4885,1.4875,1.4873,1.487,1.4868,1.5,1.5006,1.5013,0,0,0,0,0,0,0,0,0,0,0,0,0,1.4625,1.4517,1.4756,1.4769,1.4771,1.4881,1.4883,1.4885,1.4875,1.4873,1.487,1.4867,1.4998,1.5006,1.5013,1.512,0,0,1.5038,1.5041,0,0,0,0,0,0,0,0,1.4619,1.4634,1.4765,1.4768,1.4771,1.4859,1.4845,1.4964,1.4876,1.4836,1.4869,1.4866,1.4957,1.4968,1.4998,1.5126,1.5131,1.5038,1.5043,1.5047,1.5049,0,0,0,0,0,0,0,1.4611,1.4629,1.4806,1.4767,1.4771,1.477,1.4783,1.4868,1.4911,1.4839,1.4839,1.4854,1.4958,1.499,1.5001,1.5133,1.5038,1.5045,1.505,1.5053,1.5355,1.5358,0,0,0,0,0,0,1.4599,1.4622,1.4802,1.4809,1.4686,1.4776,1.4791,1.4834,1.491,1.4919,1.4856,1.4853,1.4978,1.4992,1.5006,1.5135,1.5047,1.5054,1.5059,1.5351,1.5355,1.5359,0,0,0,0,0,0,1.4594,1.4615,1.4797,1.4716,1.4739,1.4783,1.4832,1.4838,1.487,1.4923,1.4931,1.4881,1.4976,1.4994,1.5091,1.5139,1.5058,1.5065,1.5348,1.5353,1.5357,1.5394,0,0,0,0,0,0,1.4587,1.4614,1.4654,1.4717,1.4743,1.4879,1.4835,1.4842,1.4884,1.4881,1.4948,1.4957,1.4976,1.5079,1.5099,1.5149,1.5071,1.5344,1.535,1.5356,1.5389,1.5399,1.5409,0,0,0,0,0,1.4578,1.466,1.4656,1.4677,1.4794,1.4882,1.4897,1.4916,1.4887,1.4929,1.4962,1.4954,1.5131,1.5089,1.5111,1.5164,1.5341,1.5348,1.5355,1.5384,1.5397,1.5408,0,0,0,0,0,0,1.4603,1.4668,1.4664,1.4768,1.4819,1.488,1.4932,1.4929,1.4991,1.4985,1.5008,1.5023,1.512,1.5152,1.5104,1.5271,1.5232,1.5244,1.5246,1.5259,1.5269,1.526,1.5078,0,0,0,0,0,1.462,1.4684,1.4739,1.4826,1.4851,1.4887,1.4926,1.4936,1.4991,1.5013,1.5053,1.5107,1.5175,1.5219,1.5284,1.5393,1.5408,1.544,1.545,1.5458,1.5469,1.5529,1.5544,1.5383,1.5383,1.5383,0,0,1.4656,1.47,1.474,1.4831,1.4872,1.494,1.4906,1.4979,1.5029,1.5024,1.5117,1.5149,1.5211,1.5314,1.5362,1.5344,1.5516,1.5468,1.5474,1.548,1.5538,1.5553,1.5566,1.5388,1.5387,1.5386,0,0,1.4758,1.4797,1.4873,1.4915,1.4976,1.4999,1.5018,1.5079,1.5099,1.5193,1.519,1.5252,1.5368,1.5411,1.5449,1.5567,1.5562,1.5587,1.564,1.5698,1.5711,1.5722,1.5764,1.5779,1.5597,1.5598,1.5598,0,1.4796,1.4896,1.4913,1.4987,1.5027,1.5024,1.5102,1.5142,1.5222,1.5251,1.5229,1.5374,1.5416,1.5529,1.5557,1.5588,1.561,1.558,1.5707,1.5719,1.573,1.577,1.5786,1.56,1.56,1.56,1.5599,0,1.494,1.501,1.5064,1.514,1.5187,1.5262,1.5292,1.5337,1.5343,1.5369,1.5465,1.5514,1.5589,1.5617,1.5625,1.5732,1.5719,1.5702,1.5663,1.5747,1.5785,1.5801,1.5604,1.5603,1.5602,1.5602,0,0,1.506,1.5144,1.5163,1.5198,1.5265,1.532,1.5396,1.5468,1.5506,1.5562,1.5626,1.5724,1.5709,1.5751,1.5764,1.5815,1.5905,1.5792,1.5794,1.5811,1.6026,1.6038,1.6055,1.5902,1.5905,1.5907,1.6021,0,1.5167,1.53,1.5317,1.5435,1.55,1.5498,1.5564,1.5613,1.564,1.5699,1.5729,1.5798,1.5773,1.5799,1.5849,1.5883,1.5948,1.5875,1.5963,1.5966,1.5947,1.6075,1.6088,1.6192,1.6036,1.6038,1.604,0,1.5311,1.5368,1.5492,1.555,1.5578,1.5637,1.5704,1.5761,1.5817,1.5833,1.588,1.5886,1.5965,1.5923,1.6033,1.5983,1.602,1.6042,1.6047,1.6056,1.6008,1.6087,1.6226,1.6242,1.6064,1.6062,1.606,0,1.5385,1.5494,1.5582,1.5612,1.5682,1.5723,1.5755,1.5808,1.585,1.5909,1.5937,1.6005,1.6043,1.6096,1.612,1.6088,1.6229,1.6189,1.6245,1.6244,1.6274,1.6272,1.6421,1.6299,1.6298,1.6298,1.6298,0,1.5504,1.5579,1.5617,1.5671,1.5756,1.5776,1.586,1.589,1.5937,1.5998,1.6002,1.6059,1.6088,1.615,1.6169,1.6257,1.6274,1.629,1.6294,1.6289,1.6287,1.6314,1.6307,1.6302,1.6301,1.63,1.63,0,1.5601,1.5629,1.5725,1.5783,1.58,1.586,1.591,1.5963,1.5989,1.6066,1.6085,1.6126,1.6199,1.6229,1.6319,1.6332,1.6433,1.6432,1.6413,1.6415,1.6469,1.6463,1.6639,1.6664,1.6526,1.6527,1.6528,0,1.5675,1.5732,1.5797,1.5837,1.5869,1.5934,1.5977,1.5999,1.6044,1.6112,1.6157,1.6229,1.6288,1.6405,1.6443,1.6512,1.6513,1.657,1.6523,1.6516,1.6513,1.6509,1.6515,1.6578,1.658,1.6581,1.6582,0,1.5802,1.5813,1.5873,1.5938,1.5989,1.6042,1.6093,1.6127,1.6157,1.6207,1.6281,1.6327,1.6417,1.649,1.656,1.6594,1.6594,1.6596,1.6613,1.6608,1.6595,1.6602,1.6437,1.6592,1.6591,1.659,1.659,1.6589,1.589,1.5941,1.5994,1.6061,1.6102,1.615,1.6202,1.6234,1.6296,1.637,1.6381,1.646,1.6515,1.6609,1.6646,1.6709,1.6694,1.6718,1.6724,1.673,1.6733,1.6585,1.6722,1.6722,1.6722,1.6721,1.6721,0,1.6016,1.605,1.6112,1.6183,1.6236,1.623,1.6287,1.6332,1.6401,1.6452,1.6509,1.6594,1.6664,1.6708,1.6779,1.6821,1.6822,1.6838,1.6835,1.6843,1.6742,1.6721,1.6836,1.6836,1.6836,1.6836,1.6836,1.6836,1.6089,1.6175,1.6192,1.6299,1.6333,1.6409,1.6442,1.6487,1.6527,1.6621,1.6679,1.6706,1.6755,1.6829,1.6893,1.6904,1.693,1.6947,1.6957,1.6862,1.685,1.6839,1.6819,1.6953,1.6953,1.7053,1.7054,1.7054]},{"header":{"parameterUnit":"m.s-1","parameterCategory":1,"la1":30.2991,"la2":30.254,"lo1":-89.0895,"lo2":-89.0444,"dy":0.0017,"dx":0.0017,"nx":28,"ny":28,"refTime":"2025-03-06T09:00:00:Z","depth":0,"parameterNumber":3,"parameterNumberName":"V-component_of_WINDS"},"data":[0,0,0,0,0,0,0,0,0,0,0,0,0,0,0,0,0,0,0,0,0,0,0,0,0,0,0,0,0,0,0,0,0,0,0,0,0,0,0,0,0,0,0,0,0,0,0,0,0,0,0,0,0,0,0,0,0,0,1.7551,1.755,0,1.7495,1.7495,1.7494,1.7398,1.7396,1.7394,1.7393,1.7336,1.7336,1.7336,0,0,0,0,0,0,0,0,0,0,0,0,0,1.7573,1.7573,1.7551,1.755,1.7549,1.7495,1.7495,1.7494,1.7398,1.7396,1.7394,1.7392,1.7336,1.7336,1.7336,0,0,0,0,0,0,0,0,0,0,0,0,0,1.7545,1.7573,1.7551,1.7495,1.749,1.7495,1.7495,1.7494,1.7399,1.7396,1.7393,1.7391,1.7336,1.7336,1.7336,1.7392,0,0,1.7337,1.7337,0,0,0,0,0,0,0,0,1.7547,1.7544,1.7504,1.7499,1.7493,1.7451,1.7481,1.746,1.7399,1.7433,1.7393,1.739,1.7376,1.7373,1.7369,1.7389,1.7387,1.7337,1.7337,1.7337,1.7338,0,0,0,0,0,0,0,1.7549,1.7546,1.7529,1.7504,1.7497,1.7473,1.7466,1.7477,1.7421,1.743,1.7423,1.7418,1.7373,1.7369,1.7367,1.7386,1.7337,1.7337,1.7338,1.7338,1.7446,1.7449,0,0,0,0,0,0,1.7559,1.7548,1.7531,1.7527,1.7514,1.7474,1.7467,1.7467,1.742,1.7411,1.742,1.7414,1.737,1.7366,1.7364,1.7424,1.7337,1.7338,1.7338,1.7443,1.7447,1.745,0,0,0,0,0,0,1.756,1.7558,1.7533,1.7536,1.7531,1.7477,1.7478,1.7467,1.7463,1.7413,1.7402,1.7426,1.7367,1.7364,1.7385,1.7421,1.7338,1.7338,1.744,1.7444,1.7448,1.7545,0,0,0,0,0,0,1.7561,1.7559,1.758,1.7537,1.7531,1.7555,1.748,1.7468,1.7464,1.7455,1.7416,1.7407,1.7365,1.7385,1.7385,1.7419,1.7338,1.7437,1.7442,1.7447,1.7539,1.7552,1.7564,0,0,0,0,0,1.7562,1.761,1.7582,1.758,1.7556,1.7558,1.7554,1.7505,1.7467,1.7487,1.7454,1.7408,1.7417,1.7388,1.7388,1.7422,1.7434,1.7441,1.7447,1.7533,1.7549,1.7563,0,0,0,0,0,0,1.766,1.7604,1.7571,1.7608,1.7588,1.7541,1.7566,1.7525,1.7516,1.7507,1.7447,1.7439,1.7467,1.7447,1.7416,1.7472,1.7418,1.7425,1.7484,1.7499,1.7512,1.7515,1.7338,0,0,0,0,0,1.7686,1.7692,1.7642,1.7679,1.7671,1.762,1.7619,1.7583,1.756,1.7551,1.752,1.75,1.7497,1.7498,1.7493,1.7535,1.7524,1.7559,1.7571,1.7582,1.7588,1.7606,1.762,1.747,1.747,1.747,0,0,1.7739,1.7709,1.7717,1.7698,1.7678,1.7685,1.7614,1.7625,1.7629,1.7553,1.757,1.7547,1.752,1.7551,1.7563,1.7535,1.7626,1.759,1.7599,1.7598,1.7613,1.7628,1.764,1.7474,1.7473,1.7473,0,0,1.7839,1.7818,1.7845,1.7827,1.7798,1.7763,1.777,1.7729,1.771,1.7727,1.7669,1.7673,1.7672,1.7654,1.7645,1.7736,1.7692,1.7736,1.7802,1.782,1.7831,1.7842,1.7872,1.7884,1.7743,1.7743,1.7743,0,1.7909,1.7917,1.7864,1.7878,1.787,1.7801,1.7827,1.7812,1.7784,1.7779,1.7748,1.7743,1.772,1.7745,1.7767,1.7763,1.7766,1.774,1.7834,1.7844,1.7852,1.788,1.7892,1.7748,1.7748,1.7747,1.7746,0,1.8003,1.801,1.8035,1.8008,1.8003,1.8023,1.7972,1.7974,1.7938,1.7906,1.7923,1.7893,1.788,1.7883,1.7849,1.7902,1.7885,1.7845,1.779,1.7873,1.7898,1.7909,1.7756,1.7754,1.7752,1.7751,0,0,1.8164,1.8106,1.8116,1.8102,1.8064,1.8068,1.8084,1.807,1.8072,1.8055,1.8065,1.8064,1.8026,1.8016,1.7978,1.7995,1.8066,1.7952,1.795,1.7972,1.812,1.8149,1.8162,1.8037,1.8038,1.804,1.8121,0,1.8254,1.8278,1.823,1.8265,1.8269,1.8203,1.8217,1.8195,1.8166,1.8164,1.8132,1.8131,1.8082,1.8075,1.8088,1.8054,1.8094,1.8048,1.8044,1.8045,1.8051,1.8176,1.8207,1.8285,1.8131,1.8133,1.8134,0,1.8363,1.835,1.8386,1.8343,1.8343,1.8357,1.8339,1.8339,1.8312,1.8289,1.8277,1.8233,1.8244,1.8191,1.8205,1.8174,1.817,1.8153,1.8155,1.8151,1.8093,1.8174,1.8309,1.8321,1.8149,1.8148,1.8147,0,1.8474,1.8465,1.8484,1.8475,1.8427,1.8437,1.8418,1.8388,1.8382,1.8367,1.8362,1.8349,1.8341,1.8332,1.8284,1.8251,1.8302,1.8246,1.8282,1.8283,1.8295,1.8295,1.843,1.8296,1.8296,1.8295,1.8295,0,1.8579,1.8603,1.8533,1.8545,1.8569,1.8513,1.8538,1.8511,1.8485,1.849,1.8432,1.8438,1.8375,1.8374,1.8337,1.8352,1.8349,1.833,1.832,1.8334,1.8336,1.8329,1.8322,1.8298,1.8298,1.8297,1.8297,0,1.8706,1.8661,1.8677,1.863,1.8618,1.8638,1.8597,1.8605,1.8572,1.8578,1.8577,1.8524,1.8519,1.8471,1.8455,1.843,1.8458,1.8438,1.8467,1.846,1.8498,1.8494,1.8632,1.8646,1.8505,1.8507,1.8508,0,1.8775,1.8792,1.8746,1.8745,1.8728,1.8727,1.872,1.8666,1.8661,1.863,1.8642,1.8631,1.862,1.8614,1.8574,1.8561,1.8539,1.8588,1.8537,1.855,1.8537,1.8536,1.8536,1.8599,1.8601,1.8602,1.8603,0,1.8902,1.8878,1.8871,1.8856,1.8849,1.8835,1.8817,1.8819,1.8758,1.8756,1.8749,1.874,1.8723,1.8713,1.8692,1.8671,1.8626,1.862,1.8627,1.8641,1.8656,1.8646,1.8495,1.8617,1.8615,1.8614,1.8614,1.8613,1.9,1.9011,1.898,1.8973,1.8953,1.8937,1.8942,1.8909,1.8903,1.8884,1.8852,1.885,1.882,1.8787,1.877,1.8766,1.874,1.8751,1.8753,1.8757,1.8763,1.8658,1.8762,1.8762,1.8761,1.8761,1.8761,0,1.9122,1.9098,1.9093,1.9069,1.9063,1.9022,1.8999,1.8997,1.8995,1.8971,1.8961,1.8952,1.8942,1.8901,1.8885,1.889,1.8869,1.8887,1.8885,1.8881,1.8789,1.8783,1.8904,1.8904,1.8904,1.8904,1.8904,1.8904,1.9184,1.9199,1.9172,1.9176,1.9151,1.9149,1.9139,1.9123,1.9103,1.9096,1.9086,1.906,1.9028,1.9009,1.8997,1.8985,1.8981,1.9006,1.8987,1.8901,1.8888,1.8874,1.8868,1.9006,1.9006,1.9079,1.908,1.908]}]]